• In Uzbekistan
  • List of Countries
  • For 7 days
  • Water Temperature
  • Satellite Maps
  • Weather Map
  • Weather Widgets
  • user-avatar
    Login

    Hourly Weather Kanton

    Today, 21 May, Monday

    Time Temperature Precipitation Wind Pressure Humidity
    00:00 +14°C° 0 mm 2 mps 747 mmHg 96%
    01:00 +14°C° 0 mm 2 mps 747 mmHg 97%
    02:00 +14°C° 0 mm 2 mps 748 mmHg 96%
    03:00 +13°C° 0 mm 2 mps 748 mmHg 96%
    04:00 +14°C° 0 mm 2 mps 748 mmHg 96%
    05:00 +13°C° 0.1 mm 2 mps 749 mmHg 94%
    06:00 +13°C° 0.1 mm 2 mps 749 mmHg 93%
    07:00 +12°C° 0.1 mm 3 mps 750 mmHg 91%
    08:00 +12°C° 0.1 mm 3 mps 750 mmHg 87%
    09:00 +12°C° 0.1 mm 3 mps 751 mmHg 84%
    10:00 +13°C° 0 mm 3 mps 751 mmHg 79%
    11:00 +13°C° 0 mm 3 mps 752 mmHg 75%
    12:00 +13°C° 0 mm 3 mps 752 mmHg 71%
    13:00 +13°C° 0 mm 3 mps 752 mmHg 68%
    14:00 +13°C° 0 mm 3 mps 752 mmHg 65%
    15:00 +13°C° 0 mm 3 mps 752 mmHg 62%
    16:00 +13°C° 0 mm 3 mps 753 mmHg 61%
    17:00 +13°C° 0 mm 3 mps 753 mmHg 62%
    18:00 +14°C° 0 mm 2 mps 753 mmHg 63%
    19:00 +13°C° 0 mm 2 mps 753 mmHg 64%
    20:00 +12°C° 0 mm 2 mps 754 mmHg 68%
    21:00 +9°C° 0 mm 2 mps 754 mmHg 72%
    22:00 +8°C° 0 mm 2 mps 755 mmHg 75%
    23:00 +7°C° 0 mm 2 mps 755 mmHg 74%

    Tomorrow, 22 May, Tuesday

    Time Temperature Precipitation Wind Pressure Humidity
    00:00 +8°C° 0 mm 1 mps 755 mmHg 73%
    01:00 +7°C° 0 mm 1 mps 755 mmHg 72%
    02:00 +7°C° 0 mm 1 mps 756 mmHg 72%
    03:00 +7°C° 0 mm 1 mps 756 mmHg 72%
    04:00 +6°C° 0 mm 1 mps 756 mmHg 72%
    05:00 +8°C° 0 mm 1 mps 756 mmHg 67%
    06:00 +9°C° 0 mm 2 mps 756 mmHg 62%
    07:00 +12°C° 0 mm 2 mps 756 mmHg 57%
    08:00 +13°C° 0 mm 3 mps 756 mmHg 54%
    09:00 +15°C° 0 mm 4 mps 756 mmHg 51%
    10:00 +17°C° 0 mm 5 mps 756 mmHg 48%
    11:00 +19°C° 0 mm 5 mps 756 mmHg 47%
    12:00 +20°C° 0 mm 5 mps 755 mmHg 46%
    13:00 +21°C° 0 mm 6 mps 755 mmHg 45%
    14:00 +22°C° 0 mm 6 mps 755 mmHg 45%
    15:00 +22°C° 0 mm 6 mps 754 mmHg 45%
    16:00 +22°C° 0 mm 6 mps 754 mmHg 45%
    17:00 +22°C° 0 mm 5 mps 754 mmHg 50%
    18:00 +21°C° 0 mm 4 mps 754 mmHg 55%
    19:00 +20°C° 0 mm 3 mps 754 mmHg 60%
    20:00 +19°C° 0 mm 3 mps 754 mmHg 66%
    21:00 +17°C° 0 mm 3 mps 755 mmHg 71%
    22:00 +16°C° 0 mm 3 mps 755 mmHg 76%
    23:00 +15°C° 0 mm 2 mps 755 mmHg 80%

    Day after tomorrow, 23 May, Wednesday

    Time Temperature Precipitation Wind Pressure Humidity
    00:00 +14°C° 0 mm 2 mps 755 mmHg 83%
    01:00 +13°C° 0 mm 1 mps 756 mmHg 87%
    02:00 +13°C° 0 mm 1 mps 756 mmHg 88%
    03:00 +12°C° 0 mm 1 mps 756 mmHg 89%
    04:00 +11°C° 0 mm 0 mps 757 mmHg 90%
    05:00 +13°C° 0 mm 0 mps 757 mmHg 82%
    06:00 +16°C° 0 mm 1 mps 757 mmHg 74%
    07:00 +19°C° 0 mm 1 mps 757 mmHg 66%
    08:00 +20°C° 0 mm 1 mps 757 mmHg 61%
    09:00 +21°C° 0 mm 2 mps 757 mmHg 56%
    10:00 +24°C° 0 mm 2 mps 757 mmHg 51%
    11:00 +25°C° 0 mm 3 mps 757 mmHg 49%
    12:00 +26°C° 0 mm 3 mps 756 mmHg 48%
    13:00 +26°C° 0 mm 4 mps 756 mmHg 46%
    14:00 +26°C° 0 mm 4 mps 755 mmHg 46%
    15:00 +26°C° 0 mm 4 mps 755 mmHg 47%
    16:00 +26°C° 0 mm 5 mps 755 mmHg 48%
    17:00 +25°C° 0 mm 4 mps 754 mmHg 53%
    18:00 +23°C° 0 mm 4 mps 754 mmHg 58%
    19:00 +21°C° 0 mm 3 mps 754 mmHg 64%
    20:00 +20°C° 0 mm 3 mps 754 mmHg 68%
    21:00 +19°C° 0 mm 3 mps 753 mmHg 73%
    22:00 +17°C° 0 mm 2 mps 753 mmHg 77%
    23:00 +17°C° 0 mm 3 mps 753 mmHg 76%

    24 May, Thursday

    Time Temperature Precipitation Wind Pressure Humidity
    00:00 +17°C° 0 mm 3 mps 753 mmHg 75%
    01:00 +17°C° 0 mm 3 mps 752 mmHg 74%
    02:00 +17°C° 0 mm 3 mps 752 mmHg 76%
    03:00 +16°C° 0 mm 3 mps 752 mmHg 79%
    04:00 +14°C° 0 mm 3 mps 751 mmHg 81%
    05:00 +15°C° 0.2 mm 4 mps 751 mmHg 81%
    06:00 +15°C° 0.2 mm 4 mps 751 mmHg 80%
    07:00 +17°C° 0.2 mm 4 mps 750 mmHg 80%
    08:00 +17°C° 0.1 mm 5 mps 750 mmHg 76%
    09:00 +20°C° 0.1 mm 5 mps 750 mmHg 71%
    10:00 +21°C° 0.1 mm 6 mps 749 mmHg 66%
    11:00 +22°C° 0.2 mm 6 mps 749 mmHg 62%
    12:00 +23°C° 0.2 mm 6 mps 748 mmHg 58%
    13:00 +24°C° 0.2 mm 7 mps 747 mmHg 54%
    14:00 +24°C° 0.9 mm 6 mps 747 mmHg 58%
    15:00 +23°C° 0.9 mm 6 mps 746 mmHg 62%
    16:00 +23°C° 0.9 mm 5 mps 746 mmHg 66%
    17:00 +22°C° 1.7 mm 4 mps 745 mmHg 71%
    18:00 +21°C° 1.7 mm 4 mps 745 mmHg 76%
    19:00 +19°C° 1.7 mm 3 mps 745 mmHg 81%
    20:00 +18°C° 1 mm 3 mps 745 mmHg 85%
    21:00 +17°C° 1 mm 2 mps 744 mmHg 90%
    22:00 +16°C° 1 mm 1 mps 744 mmHg 94%
    23:00 +16°C° 0.9 mm 1 mps 744 mmHg 95%

    25 May, Friday

    Time Temperature Precipitation Wind Pressure Humidity
    00:00 +15°C° 0.9 mm 1 mps 743 mmHg 96%
    01:00 +15°C° 0.9 mm 2 mps 743 mmHg 97%
    02:00 +15°C° 1.7 mm 2 mps 743 mmHg 96%
    03:00 +14°C° 1.7 mm 2 mps 743 mmHg 96%
    04:00 +13°C° 1.7 mm 3 mps 742 mmHg 95%
    05:00 +12°C° 1.1 mm 3 mps 742 mmHg 95%
    06:00 +12°C° 1.1 mm 3 mps 742 mmHg 94%
    07:00 +11°C° 1.1 mm 3 mps 742 mmHg 94%
    08:00 +11°C° 0.9 mm 3 mps 742 mmHg 93%
    09:00 +10°C° 0.9 mm 4 mps 742 mmHg 93%
    10:00 +10°C° 0.9 mm 4 mps 743 mmHg 92%
    11:00 +8°C° 0.6 mm 5 mps 743 mmHg 92%
    12:00 +8°C° 0.6 mm 5 mps 743 mmHg 92%
    13:00 +7°C° 0.6 mm 5 mps 743 mmHg 92%
    14:00 +7°C° 0.3 mm 5 mps 744 mmHg 91%
    15:00 +7°C° 0.3 mm 5 mps 744 mmHg 90%
    16:00 +7°C° 0.3 mm 5 mps 744 mmHg 89%
    17:00 +6°C° 0.3 mm 5 mps 745 mmHg 89%
    18:00 +6°C° 0.3 mm 4 mps 745 mmHg 90%
    19:00 +6°C° 0.3 mm 4 mps 746 mmHg 90%
    20:00 +6°C° 0.1 mm 4 mps 746 mmHg 90%
    21:00 +5°C° 0.1 mm 4 mps 746 mmHg 90%
    22:00 +5°C° 0.1 mm 4 mps 746 mmHg 90%
    23:00 +5°C° 0 mm 4 mps 747 mmHg 89%

    26 May, Saturday

    Time Temperature Precipitation Wind Pressure Humidity
    00:00 +4°C° 0 mm 3 mps 747 mmHg 89%
    01:00 +4°C° 0 mm 3 mps 747 mmHg 89%
    02:00 +3°C° 0 mm 3 mps 747 mmHg 89%
    03:00 +3°C° 0 mm 3 mps 748 mmHg 89%
    04:00 +2°C° 0 mm 3 mps 748 mmHg 89%
    05:00 +3°C° 0 mm 4 mps 748 mmHg 82%
    06:00 +4°C° 0 mm 4 mps 749 mmHg 76%
    07:00 +5°C° 0 mm 5 mps 749 mmHg 70%
    08:00 +7°C° 0 mm 5 mps 749 mmHg 60%
    09:00 +9°C° 0 mm 6 mps 749 mmHg 50%
    10:00 +10°C° 0 mm 6 mps 749 mmHg 39%
    11:00 +11°C° 0 mm 6 mps 750 mmHg 39%
    12:00 +11°C° 0 mm 6 mps 750 mmHg 39%
    13:00 +13°C° 0 mm 6 mps 750 mmHg 38%
    14:00 +13°C° 0 mm 6 mps 750 mmHg 39%
    15:00 +13°C° 0 mm 6 mps 750 mmHg 40%
    16:00 +13°C° 0 mm 6 mps 750 mmHg 41%
    17:00 +12°C° 0 mm 5 mps 750 mmHg 44%
    18:00 +12°C° 0 mm 5 mps 750 mmHg 48%
    19:00 +11°C° 0 mm 4 mps 750 mmHg 51%
    20:00 +10°C° 0 mm 4 mps 751 mmHg 53%
    21:00 +7°C° 0 mm 4 mps 751 mmHg 56%
    22:00 +7°C° 0 mm 3 mps 752 mmHg 58%
    23:00 +5°C° 0 mm 3 mps 751 mmHg 60%
    Show more